Theta_e
327 332 334 343 344 344 343 342 343 342 342 342 343 343 342 342 341 340 340 339 339 339 339 339 338 337 337 338 337 336 336 336 335 335 335 334 334 334 332 334 332 332 333 334 333 332 332 333 333 330 331 330 331 331 331 332 335 333 331 329 330 331 331 334 335 336 335 335 334 334 333 335 337 337 338 338 337 337 337 339 336 333 332 331 337
328 332 335 338 344 344 343 343 343 342 342 342 342 342 342 342 341 340 340 339 339 338 339 338 338 338 337 337 337 336 336 336 335 334 334 334 334 333 332 334 332 331 332 333 333 331 333 332 332 330 331 331 331 331 330 334 333 331 331 329 330 330 333 334 336 335 334 333 332 333 333 335 336 337 337 338 337 336 337 338 337 333 328 337 338
331 333 336 338 344 344 343 343 343 342 342 341 340 341 341 341 341 340 340 340 339 339 338 338 338 337 337 337 337 336 335 334 334 334 334 333 333 333 332 333 330 330 332 333 333 331 333 332 332 332 331 332 330 329 331 333 331 331 329 329 330 331 334 335 335 334 332 332 332 332 334 333 334 335 336 337 336 336 336 337 336 336 331 338 340
331 334 336 339 344 344 343 342 342 342 342 341 341 340 340 340 340 340 340 339 339 338 338 338 337 337 337 337 337 336 336 335 334 334 334 332 332 332 332 333 330 331 333 333 332 331 333 332 332 332 331 330 331 330 332 331 330 330 327 328 331 334 334 334 333 332 331 331 331 332 328 321 324 331 335 335 336 336 335 336 336 336 338 340 342
331 334 336 338 341 343 343 342 343 342 342 342 341 341 340 340 340 340 339 339 339 339 337 338 338 337 337 336 336 336 335 334 333 334 333 332 332 333 332 334 331 331 333 333 332 331 332 332 332 331 331 331 330 330 331 330 330 328 328 331 331 334 333 333 332 330 330 330 330 329 320 320 320 328 334 335 336 335 335 337 338 337 339 341 343
331 335 337 339 339 339 343 343 342 342 342 342 341 340 340 339 339 340 339 339 339 339 339 337 338 337 337 337 336 335 334 334 333 333 333 333 333 333 332 333 331 329 332 333 332 331 332 331 331 331 330 329 329 329 331 330 330 329 329 330 333 333 332 331 330 329 329 328 326 321 320 320 320 323 333 334 335 335 336 336 336 339 341 342 343
333 335 337 339 338 339 343 342 342 341 341 342 341 340 340 340 340 339 338 339 339 338 338 336 337 337 336 336 336 335 334 334 334 333 332 333 333 332 333 333 330 330 331 332 330 331 331 330 329 329 330 328 329 330 331 330 329 326 330 331 333 332 331 329 328 328 328 325 317 317 319 320 319 320 332 333 334 335 337 337 339 341 341 342 343
332 336 338 339 338 340 343 343 342 341 342 341 340 340 341 340 340 339 339 338 339 338 338 337 337 337 336 336 335 335 334 334 333 333 333 334 332 332 333 332 332 331 332 331 330 331 331 331 328 329 328 327 329 331 330 329 327 329 330 332 331 330 328 328 328 328 326 317 316 318 318 318 319 320 331 332 334 337 337 337 339 340 339 342 340
331 335 337 338 338 340 343 343 342 342 342 342 341 340 341 340 340 339 339 338 338 338 336 337 336 337 336 335 335 335 335 334 333 333 333 333 332 332 332 332 331 332 332 332 330 330 331 330 331 329 329 329 330 331 328 328 327 329 329 331 330 328 328 328 328 327 320 315 315 316 317 318 320 319 328 332 334 337 337 337 338 339 339 339 340
331 333 337 337 337 340 342 343 342 342 341 342 341 340 340 340 340 339 339 338 337 338 335 337 336 336 336 336 336 335 335 334 333 333 332 333 333 332 332 332 331 332 331 331 331 330 331 329 330 330 329 327 328 330 328 328 328 329 330 329 328 328 328 327 327 323 314 312 313 315 316 327 321 320 325 332 335 336 336 336 336 337 338 340 340
330 333 335 336 336 340 342 343 342 342 342 341 341 341 340 340 339 339 339 338 337 337 336 336 336 336 336 336 335 335 335 334 333 333 333 333 332 332 331 332 332 332 331 331 331 331 331 330 330 329 329 329 329 329 328 328 328 329 328 328 328 328 328 327 327 311 311 311 312 313 318 325 319 315 330 334 336 336 336 336 337 338 340 341 341
330 332 334 335 336 340 341 342 342 342 341 341 340 340 340 339 339 339 338 337 337 335 337 336 337 335 335 335 335 335 334 334 333 333 333 333 333 332 331 332 332 331 332 331 330 330 330 330 330 329 330 329 328 329 328 328 328 328 328 330 328 328 327 326 319 312 309 309 310 315 314 315 315 319 332 334 335 336 337 338 339 341 343 343 342
328 330 332 334 335 339 340 341 342 342 342 342 340 340 340 339 338 339 338 338 337 336 337 336 336 335 335 336 335 334 334 333 333 333 333 333 332 332 332 332 332 331 331 330 330 330 329 329 330 330 330 329 329 329 328 328 328 329 330 329 328 327 326 326 314 311 311 309 311 313 313 313 315 328 332 334 335 336 337 339 341 342 342 343 343
327 329 330 333 335 336 339 340 341 342 342 342 341 340 339 339 338 338 339 338 337 337 337 336 336 335 335 335 335 334 333 333 333 332 332 332 332 332 332 332 332 331 331 330 330 330 330 330 330 330 329 329 328 327 328 327 328 330 329 328 327 326 325 325 322 311 310 310 313 314 314 316 315 330 332 333 335 336 338 340 341 343 343 343 344
325 326 329 333 334 337 336 339 340 341 341 341 341 341 340 339 338 338 339 338 337 337 337 336 336 336 335 335 335 334 333 333 334 333 333 333 332 332 332 332 331 330 330 330 330 330 330 330 330 330 329 328 328 328 328 328 329 329 329 327 326 326 325 315 314 310 311 313 312 312 313 313 327 329 332 333 334 336 338 340 342 343 342 342 342
324 325 330 333 334 336 337 337 338 339 339 339 339 340 340 340 339 337 338 338 337 337 337 336 336 335 335 335 335 335 334 333 334 334 332 333 333 332 331 331 331 330 330 329 330 330 329 329 329 330 329 329 329 329 328 328 329 330 329 327 326 325 325 324 312 310 310 310 311 313 314 313 328 330 331 332 334 336 339 341 341 341 342 342 343
322 325 330 332 333 334 336 337 337 338 338 338 337 338 339 339 339 338 338 338 337 337 336 336 336 335 335 335 335 335 334 334 333 334 332 331 332 332 332 331 331 330 329 329 329 329 330 329 329 329 329 329 329 329 328 328 328 329 329 327 326 326 325 325 313 311 309 312 314 315 314 315 327 330 331 333 335 337 339 340 342 342 344 344 343
324 327 328 331 332 333 335 336 337 337 337 336 336 336 337 338 338 337 337 337 337 337 336 336 336 335 335 334 334 334 334 334 334 333 332 331 331 332 332 330 331 330 329 330 329 329 329 330 329 329 329 329 329 328 328 328 328 329 327 327 326 326 325 325 313 312 311 316 313 315 314 323 329 330 331 333 336 338 340 341 341 343 344 344 343
323 326 328 328 331 333 334 334 335 336 335 335 335 335 336 336 336 336 336 336 336 335 335 334 334 334 333 333 332 332 333 333 333 332 332 332 331 331 331 331 330 330 330 329 329 329 329 329 329 329 329 329 328 328 328 328 329 328 327 327 327 326 325 321 310 310 310 312 312 312 312 327 328 330 332 334 336 339 340 340 341 343 343 342 344
321 325 327 326 329 331 332 333 334 335 334 334 334 334 335 334 334 334 334 334 334 333 333 332 331 331 331 330 329 329 331 330 333 331 331 330 331 330 330 329 331 330 330 329 329 329 329 328 329 328 328 328 328 328 327 327 329 328 328 327 326 326 316 311 308 309 310 310 317 311 321 327 328 330 332 334 337 339 339 340 341 342 341 343 342
323 322 326 327 328 329 331 332 333 334 334 333 333 333 333 333 332 332 332 332 332 331 331 330 329 328 329 328 328 328 325 325 328 324 331 327 328 328 329 329 328 330 330 329 329 328 328 328 328 328 327 327 327 327 327 328 328 328 328 326 326 316 312 310 309 310 312 310 314 309 324 326 328 330 333 335 337 339 339 339 341 340 342 343 340
320 321 322 327 328 329 330 331 331 332 333 333 333 332 332 332 332 331 331 331 330 330 329 329 328 327 326 327 326 325 324 323 323 326 324 324 325 326 327 327 328 329 329 329 329 328 328 328 328 327 326 326 327 321 319 327 328 328 326 325 318 313 311 309 308 309 311 308 312 313 324 326 328 330 333 335 337 339 339 340 341 340 341 341 340
315 319 321 324 329 329 329 330 330 331 331 332 332 331 331 331 331 330 330 330 329 328 328 327 327 327 326 326 325 324 323 322 321 323 322 323 323 324 325 326 327 327 328 328 329 329 328 327 327 326 326 326 321 313 313 310 312 325 325 319 313 312 311 308 309 309 310 308 310 318 324 325 328 330 332 334 337 339 339 340 339 340 340 340 341
315 319 321 322 328 328 329 330 330 331 331 332 332 331 330 331 330 329 329 329 328 328 327 327 326 326 326 324 324 323 322 321 324 324 325 322 321 323 324 324 326 326 326 326 328 328 329 327 326 325 326 322 311 312 312 311 312 313 313 312 311 311 310 309 308 309 309 309 309 318 323 325 327 329 331 333 337 338 338 339 338 339 340 340 340
314 318 318 319 324 328 329 328 329 331 331 332 331 330 330 330 330 329 328 328 327 327 327 326 326 325 325 324 323 322 321 320 320 321 320 319 318 319 321 321 321 321 324 320 319 319 321 314 314 318 311 311 309 311 311 312 314 314 313 312 311 310 309 310 309 307 307 306 310 320 323 325 327 328 330 332 335 337 337 337 338 339 339 340 339
310 313 317 317 321 327 329 329 329 330 330 331 331 331 330 329 329 329 328 327 327 326 326 326 325 325 324 324 322 321 321 320 319 320 320 319 318 318 318 318 317 318 320 318 316 316 315 312 312 311 309 308 312 311 309 314 313 311 311 311 312 309 310 307 307 306 306 306 310 320 323 324 325 327 328 331 334 336 335 337 338 338 339 339 338
309 312 315 317 319 324 327 328 328 329 329 331 331 330 329 330 329 329 328 327 327 326 325 325 325 325 324 323 322 321 321 320 320 319 319 319 319 318 318 317 317 317 317 317 315 314 314 312 309 311 308 308 309 308 310 311 311 311 310 310 310 310 308 307 305 306 305 306 310 320 322 323 324 325 326 330 333 335 335 336 337 338 338 338 339
309 310 311 315 317 320 325 328 328 328 328 330 330 329 329 329 329 328 328 327 326 326 326 325 325 324 324 323 322 322 321 320 320 319 320 318 319 318 318 317 317 317 316 316 315 312 311 310 309 307 308 308 309 308 309 310 310 309 309 308 307 309 308 306 305 306 308 307 308 315 320 322 323 324 326 328 331 333 334 336 336 337 338 339 338
307 309 310 312 316 318 323 325 327 328 328 329 328 329 329 328 328 327 328 326 327 326 326 325 325 324 324 324 322 322 321 321 320 320 319 318 318 317 317 318 317 316 315 315 314 312 310 309 308 307 306 307 306 307 306 307 308 309 309 309 308 306 305 305 306 307 307 307 307 309 319 321 322 323 325 326 329 331 333 334 336 338 339 338 339
305 307 309 310 314 317 320 323 326 328 329 328 327 327 328 328 328 327 327 326 327 327 326 325 325 325 324 324 323 323 322 321 321 320 319 318 317 316 317 317 317 316 315 315 314 313 311 308 307 306 305 305 305 306 305 305 306 308 308 310 308 308 306 306 306 306 307 307 306 307 317 319 321 323 324 325 327 329 331 333 334 336 338 338 339
304 305 307 309 312 316 319 322 324 326 328 328 327 327 327 327 328 328 327 325 326 326 326 326 325 325 325 324 324 323 323 322 321 320 319 319 318 316 316 316 316 316 315 315 314 313 311 309 308 306 304 303 304 304 305 304 305 307 308 309 309 305 306 306 305 305 305 307 307 305 307 316 318 321 323 324 325 327 329 331 332 334 337 338 340
303 304 306 308 310 315 318 321 323 324 326 328 327 327 326 327 328 328 327 327 326 326 326 326 325 325 325 324 324 324 322 322 321 320 320 319 318 317 317 316 316 316 315 315 313 313 311 309 308 307 305 304 304 303 305 305 306 308 308 308 306 307 307 307 306 305 304 304 305 305 304 307 316 318 320 322 323 326 328 330 331 334 336 337 338
304 305 305 306 308 312 317 319 322 323 323 326 328 327 327 327 327 328 328 327 326 326 325 326 326 326 325 325 324 324 323 323 322 321 319 319 319 317 316 316 317 316 315 314 313 312 310 307 306 306 304 303 303 303 305 307 307 308 308 308 307 307 308 306 306 304 304 305 305 304 303 304 305 315 317 319 322 324 326 328 330 333 334 335 337
305 304 304 305 307 310 316 319 320 321 322 324 327 327 327 327 327 328 327 327 327 326 325 326 326 325 325 325 324 324 323 323 322 321 320 319 318 318 317 316 316 315 314 313 312 311 310 307 305 304 305 303 302 303 303 306 306 305 307 308 306 308 307 306 305 307 304 304 305 302 302 303 305 306 307 315 318 321 324 326 329 331 333 334 336
305 304 304 305 306 308 312 317 319 320 321 322 323 326 326 327 327 328 328 327 327 326 326 326 326 325 325 325 324 324 323 323 323 322 320 320 318 318 317 317 316 315 314 313 312 310 309 307 304 303 302 302 302 303 304 306 306 307 307 308 308 308 304 307 304 303 303 306 302 302 302 304 305 305 308 306 314 317 321 323 325 327 329 330 333
304 305 305 306 305 306 309 313 317 319 320 321 322 324 325 326 326 325 327 327 327 326 326 326 326 325 325 325 324 324 323 323 323 322 321 320 319 318 318 317 315 314 314 311 311 309 308 307 304 303 301 301 302 302 304 305 306 307 306 306 307 307 306 304 304 302 304 302 303 304 301 303 304 304 309 307 307 311 318 319 322 324 326 326 329
305 305 305 305 305 306 307 309 313 318 319 320 321 322 323 324 324 325 326 326 326 326 326 326 325 324 324 324 324 324 323 323 323 322 321 320 319 318 318 317 315 315 313 311 309 309 307 306 303 303 303 302 302 302 303 305 306 306 305 305 306 306 307 306 305 304 303 302 304 302 301 302 303 311 306 306 307 307 313 316 319 320 321 323 326
304 305 305 305 305 306 306 308 311 316 319 320 320 321 322 322 322 323 322 324 324 325 326 325 325 324 324 324 324 324 323 323 323 322 322 321 319 318 317 316 315 315 313 310 309 307 307 306 304 302 303 302 302 302 303 304 305 306 304 303 304 302 304 304 304 303 301 303 303 301 304 301 302 305 304 305 307 306 307 312 316 316 317 319 323
304 304 305 305 305 306 306 307 309 313 317 318 319 320 320 321 320 319 319 320 322 323 324 324 324 325 324 324 323 323 322 323 323 322 321 320 319 318 317 315 315 315 313 310 308 305 305 304 304 302 302 303 303 303 304 305 305 303 304 304 301 303 304 303 301 301 300 302 303 304 301 304 301 303 304 305 305 305 306 308 309 311 313 316 319
304 304 304 304 304 305 305 306 307 310 315 317 317 317 317 317 316 314 313 316 319 320 322 323 324 324 324 324 323 323 323 322 323 322 321 320 319 317 316 315 315 315 313 310 308 305 304 303 303 303 302 301 300 303 303 304 301 301 301 302 301 300 302 301 301 301 300 300 302 301 302 301 301 303 303 304 305 304 305 305 307 309 311 313 315
301 302 302 302 303 304 304 304 307 308 310 313 314 314 314 312 313 315 316 317 318 319 320 321 322 323 323 324 323 323 323 322 322 322 321 319 319 317 316 314 315 314 313 311 310 306 305 304 304 303 302 301 300 299 302 305 303 301 300 300 302 300 300 300 302 302 301 301 299 300 300 299 300 301 305 303 304 304 303 304 307 308 310 310 312
298 299 300 301 301 302 304 305 306 307 308 311 313 314 314 315 314 315 316 317 317 317 318 320 321 321 322 322 322 322 322 322 321 322 321 320 318 317 315 314 315 314 313 312 310 307 305 304 303 301 302 303 301 301 303 305 299 303 299 298 300 303 301 299 302 303 302 301 300 301 301 301 300 302 303 302 304 304 303 303 305 306 307 309 310
297 297 299 300 300 301 302 305 306 307 308 309 310 312 313 314 315 315 316 316 318 318 319 319 319 319 319 319 320 320 321 321 321 321 321 321 319 318 316 315 314 313 311 310 309 306 305 304 303 303 300 299 300 301 303 307 301 299 295 296 295 296 299 301 300 302 303 301 298 300 301 299 301 302 305 302 302 303 301 302 303 304 306 307 309
297 296 296 298 300 301 301 303 305 306 308 308 309 311 313 313 314 314 315 315 313 313 313 312 315 315 317 318 320 321 321 322 322 321 321 321 320 318 316 314 314 313 312 310 308 307 304 304 303 303 302 300 300 301 304 306 301 303 298 299 292 293 291 295 300 298 298 302 301 302 299 301 300 300 300 303 304 302 301 300 303 304 306 305 307
297 297 296 296 299 299 301 302 304 305 307 308 309 309 309 306 306 306 307 308 308 310 310 310 314 316 318 318 319 320 321 321 321 321 321 321 320 319 316 315 314 313 312 311 308 307 305 305 304 303 302 303 300 300 302 305 304 307 300 292 291 292 294 289 294 295 294 298 299 299 298 298 299 303 302 303 300 301 301 303 304 304 303 303 304
297 298 298 297 297 299 300 301 302 303 305 307 308 309 308 309 308 308 306 306 309 308 310 313 314 315 316 317 315 317 319 320 320 320 320 319 319 319 317 315 314 313 312 311 309 307 305 304 304 304 303 303 302 300 300 303 305 305 300 296 297 292 291 290 294 293 293 294 296 296 299 298 297 301 302 302 302 305 301 306 301 303 302 303 304
297 296 295 295 296 298 299 300 301 301 304 305 306 307 307 308 309 310 310 310 310 310 312 314 315 315 315 315 316 316 318 318 318 319 319 319 319 318 317 316 315 314 312 311 309 307 306 305 305 304 304 303 301 300 301 303 301 303 303 297 295 291 294 295 292 288 292 292 293 295 298 297 296 296 300 302 302 303 304 302 303 303 306 307 304
298 296 295 296 295 296 297 298 299 301 302 304 306 308 308 308 308 308 309 309 309 310 311 311 310 311 313 313 314 315 317 318 318 318 319 319 318 318 317 316 315 314 312 311 310 308 307 305 305 305 304 304 302 301 301 303 303 304 305 301 295 292 292 291 290 293 290 290 292 293 292 294 294 296 299 301 301 302 303 302 303 301 305 310 308
297 296 297 297 295 295 295 296 297 298 300 301 305 306 308 308 308 308 307 308 309 309 304 307 308 309 311 310 312 313 314 316 317 317 317 318 316 318 317 316 315 314 312 312 311 309 307 305 304 303 303 303 303 302 301 301 304 304 303 301 297 297 294 292 290 288 287 288 288 290 293 294 294 296 297 297 299 302 302 304 303 302 304 309 312
296 296 296 295 295 295 295 295 296 296 298 300 304 305 305 306 306 306 307 307 305 302 303 305 306 305 309 309 310 311 312 313 314 315 316 317 316 317 317 316 315 314 312 312 311 309 307 305 304 304 304 303 303 302 301 301 304 305 303 304 301 296 296 295 294 291 290 289 291 291 291 296 296 296 296 297 297 298 300 301 301 300 303 307 313
296 295 296 295 294 294 296 296 295 294 296 299 301 303 304 304 306 306 306 306 304 304 303 303 304 303 308 308 309 311 311 312 311 312 314 315 316 315 316 316 316 314 312 312 311 310 308 306 305 304 304 303 303 302 301 300 302 303 301 302 302 301 300 298 298 294 294 288 290 290 289 293 294 293 294 296 297 297 299 299 301 301 302 304 309
Wind_Speed
5 9 9 15 19 19 19 19 20 19 19 19 18 18 19 19 19 18 17 16 15 14 14 14 14 13 12 12 12 11 11 11 11 11 11 11 10 9 9 8 8 7 6 5 4 5 6 5 5 5 4 3 4 1 4 5 9 5 5 4 3 4 5 6 6 7 8 9 10 11 12 12 11 11 10 8 9 9 8 4 7 4 4 5 12
10 8 9 9 19 19 19 19 20 20 19 19 18 18 18 18 18 18 18 17 16 15 14 14 13 13 13 12 11 11 11 11 11 10 11 10 10 9 9 8 8 7 7 6 5 5 5 3 5 5 3 4 2 4 1 7 5 4 3 2 3 3 6 6 6 8 8 9 10 11 11 10 10 11 10 9 9 10 9 6 8 5 3 9 13
10 10 9 10 17 18 19 19 20 20 20 19 18 18 17 17 18 17 18 17 17 16 14 14 14 13 13 12 12 12 12 12 11 11 10 10 10 9 9 9 8 8 7 6 6 6 5 4 6 6 4 5 4 2 1 4 4 3 3 2 3 5 5 5 8 8 9 10 10 11 10 8 10 10 11 10 10 10 11 9 7 10 6 14 13
12 10 9 11 17 17 18 19 20 20 20 19 19 18 18 17 17 17 17 17 17 16 15 15 14 13 13 13 12 12 12 11 11 11 11 10 10 10 10 9 9 8 8 7 6 7 6 3 4 5 3 4 3 3 4 3 3 3 2 1 4 6 5 6 8 9 10 11 11 9 3 4 6 9 10 11 11 12 11 9 10 10 14 14 16
11 10 10 11 12 15 18 19 20 20 20 20 19 19 18 17 17 16 16 16 16 16 16 15 15 14 14 14 13 12 12 12 11 11 11 11 10 11 10 9 9 9 8 7 6 7 5 4 5 5 3 3 3 2 3 3 2 2 1 3 5 5 6 7 8 9 10 11 11 7 3 4 4 7 11 12 12 12 11 10 8 11 13 15 17
9 10 10 10 11 12 19 19 20 20 20 19 20 19 19 18 18 16 16 15 16 16 16 15 15 14 15 14 13 12 12 12 11 12 11 12 11 10 10 10 9 9 9 8 6 6 5 5 4 5 4 3 2 1 3 3 2 1 2 3 5 5 6 7 8 9 10 11 9 4 4 4 4 4 11 12 13 13 12 12 12 15 16 18 16
11 9 11 11 9 11 18 18 20 20 20 20 19 19 19 18 18 17 17 17 16 17 16 15 16 15 14 13 13 13 12 12 13 12 12 11 11 10 10 10 9 9 9 9 8 7 5 5 5 4 3 4 3 1 2 3 1 0 2 3 4 6 6 7 8 9 10 7 4 4 4 4 4 3 9 13 13 13 13 12 14 16 17 17 19
6 7 10 11 10 13 18 19 20 21 21 20 19 19 19 18 18 17 18 18 16 17 16 16 15 16 15 14 13 13 13 13 12 12 12 11 11 10 10 9 9 9 8 8 8 8 6 6 6 5 4 4 4 1 2 1 1 2 1 2 4 5 5 7 8 9 10 4 4 4 5 4 4 4 8 13 13 13 12 13 15 16 17 18 16
8 7 8 10 10 17 18 18 20 21 21 20 20 19 19 19 18 18 17 18 17 16 16 16 15 15 15 14 14 13 13 13 12 12 11 11 10 10 10 10 9 9 9 8 8 8 7 6 6 6 5 4 3 2 2 3 1 1 1 1 2 3 5 7 8 9 5 3 4 4 5 4 4 4 8 14 13 12 12 12 12 15 16 15 16
7 7 7 8 10 18 18 19 21 21 22 21 21 21 21 19 19 19 18 17 17 16 16 15 15 15 15 14 14 14 13 13 12 12 12 11 11 10 11 10 10 10 8 8 8 7 7 7 6 6 5 5 5 3 3 2 3 0 1 3 1 2 4 6 8 6 3 4 4 4 4 7 4 4 7 13 12 12 13 14 13 13 12 15 16
7 8 7 8 11 17 18 18 20 21 22 22 21 22 22 20 19 19 18 18 18 16 17 16 15 16 15 15 14 14 14 13 13 12 12 12 11 11 10 10 9 9 9 8 8 7 7 7 6 6 6 6 5 4 3 2 2 3 4 4 1 2 5 6 6 3 3 4 4 4 5 9 4 4 9 11 12 13 15 16 17 14 16 17 17
7 7 8 8 12 18 18 18 18 20 21 22 21 21 21 20 19 20 19 18 18 17 17 17 16 16 15 15 15 14 14 13 13 13 12 12 12 11 11 11 10 10 9 9 8 8 8 8 6 7 7 7 6 5 3 3 3 5 3 3 0 2 4 6 3 3 4 4 4 3 4 4 4 6 11 12 13 15 17 17 16 18 17 18 19
8 7 6 7 11 17 19 19 18 19 19 20 20 21 20 20 19 19 20 19 18 18 17 17 17 16 16 16 16 14 14 13 13 13 12 12 12 12 11 11 10 10 9 9 9 8 8 8 8 7 7 6 6 6 4 4 4 2 3 0 1 3 4 6 2 3 4 3 3 4 4 4 4 9 11 13 14 17 17 17 18 17 17 18 18
10 9 8 7 8 15 21 20 19 18 18 18 18 19 20 20 20 19 19 20 19 19 18 18 17 17 16 16 16 15 14 14 13 13 13 13 13 12 12 11 11 11 10 10 9 9 9 9 9 8 7 7 6 7 7 4 4 3 1 1 1 2 4 4 4 3 4 4 3 4 4 4 4 9 12 14 16 17 17 18 19 17 17 17 17
11 11 10 9 9 10 19 21 20 19 18 17 17 17 19 20 20 20 20 20 19 19 19 18 18 18 17 17 16 15 15 14 12 12 11 11 13 13 12 12 12 11 11 11 10 10 9 10 9 9 8 7 7 7 7 7 4 5 3 2 2 3 4 2 2 3 4 4 3 3 4 4 7 11 13 15 16 17 17 17 18 17 17 16 17
7 12 10 10 10 10 11 17 20 20 18 17 17 17 18 19 19 20 20 20 20 20 19 19 19 19 18 18 17 16 15 15 13 12 10 10 11 11 12 12 12 11 11 11 11 10 10 10 10 10 9 8 8 7 7 7 6 6 4 3 3 4 4 4 2 4 4 5 4 3 4 3 8 11 13 15 15 15 16 17 17 16 16 16 16
3 4 9 10 11 10 11 11 15 20 18 17 16 17 17 17 18 18 18 18 20 19 19 19 19 19 18 17 16 16 15 15 14 12 11 11 10 9 11 12 12 12 11 11 11 11 11 10 10 10 9 9 8 7 8 8 8 6 5 4 4 4 4 4 3 4 4 4 3 4 5 3 7 12 14 14 15 15 17 17 16 15 16 16 16
1 2 4 6 8 9 11 9 12 14 12 14 16 17 17 17 17 17 17 17 17 18 18 18 17 17 17 15 14 14 14 13 13 12 11 11 11 10 10 13 12 12 12 11 12 11 11 10 10 10 9 9 8 8 8 8 9 5 4 4 5 5 4 4 3 4 4 4 4 4 3 6 9 12 14 14 15 15 17 17 16 16 16 18 17
5 4 1 3 6 7 9 8 10 11 11 10 10 14 18 17 17 16 17 17 16 16 16 15 15 16 16 15 13 12 12 12 12 13 11 12 12 12 10 9 13 13 12 12 12 12 12 11 10 10 10 10 9 8 9 9 4 5 5 5 6 5 5 4 3 4 4 4 4 4 3 7 9 12 14 14 15 17 16 16 16 17 17 17 17
6 5 4 4 4 5 6 8 8 10 10 9 9 10 15 18 17 16 16 16 16 15 15 14 14 15 14 13 12 10 10 10 12 10 13 12 13 10 14 9 9 11 13 12 12 12 12 11 10 10 10 10 9 9 9 10 7 6 5 6 6 5 2 2 3 4 5 4 4 3 5 7 9 12 14 14 15 16 16 16 17 17 17 18 18
3 4 4 5 4 6 7 7 7 8 9 9 8 10 11 16 15 16 15 16 15 15 13 14 12 10 11 11 11 8 6 6 8 5 10 10 12 13 14 12 11 8 11 12 12 12 12 12 11 11 10 10 9 9 9 9 7 7 6 7 6 2 2 3 3 4 5 3 3 3 5 6 9 12 14 14 15 16 16 16 17 17 18 19 19
6 5 4 5 6 6 8 8 7 7 7 8 7 7 8 13 11 10 10 12 13 13 11 9 9 6 10 9 7 7 7 6 6 6 5 6 10 13 13 12 12 11 9 11 12 12 12 12 12 11 11 10 9 4 4 5 6 7 7 8 4 2 2 2 3 5 5 4 3 4 4 6 8 12 13 14 15 15 15 17 18 18 18 19 18
3 5 6 8 8 8 7 8 9 9 7 7 6 7 9 9 10 10 9 11 10 11 9 9 7 7 7 7 6 6 6 6 6 6 4 7 7 11 12 12 12 13 12 9 9 10 13 13 12 11 10 10 6 3 3 3 3 6 6 4 3 2 2 2 4 5 6 4 2 4 4 5 8 11 12 14 16 15 16 17 18 18 19 19 19
7 8 10 8 9 9 11 10 10 10 9 7 6 7 8 8 8 8 8 8 9 9 9 8 8 8 8 6 6 5 6 6 7 9 7 5 6 9 12 12 12 12 13 9 9 7 8 11 12 12 8 4 3 3 3 3 4 4 4 4 3 2 1 3 4 5 5 3 4 5 4 5 8 10 12 13 15 14 16 17 18 18 18 19 19
8 6 4 6 9 11 9 10 10 10 11 9 8 8 8 8 8 8 8 8 8 8 8 8 8 9 9 7 6 5 5 6 6 6 6 5 4 5 6 7 6 6 10 7 6 5 5 3 3 5 2 3 3 4 3 4 5 5 5 5 3 2 2 3 4 5 4 4 4 5 5 5 7 9 11 12 15 15 15 16 17 18 17 18 18
3 4 8 7 9 11 11 10 10 10 11 11 11 8 7 8 9 9 8 8 9 9 8 8 8 9 8 8 7 7 6 6 6 6 6 6 6 5 6 6 5 6 6 6 6 6 5 4 4 5 3 2 4 4 3 4 5 5 5 4 4 3 3 3 4 3 3 3 4 7 5 5 6 8 10 12 13 14 15 17 18 17 17 18 17
6 8 7 6 8 9 10 8 9 9 11 10 9 8 8 8 8 8 9 9 8 9 9 8 8 8 9 8 8 7 7 7 7 7 8 7 7 7 6 6 6 6 6 6 6 5 6 6 5 5 4 3 4 3 3 4 4 5 5 4 4 4 4 4 3 2 3 4 4 6 6 5 6 7 9 11 13 15 15 17 17 18 17 17 17
5 7 7 7 6 8 9 10 10 10 10 10 10 9 9 8 8 8 9 9 9 10 9 9 8 9 9 8 8 8 8 8 8 8 8 7 8 7 6 6 6 6 6 6 6 6 5 5 5 4 4 4 4 4 4 4 5 4 5 4 4 5 4 3 2 2 3 4 3 5 6 6 6 7 8 10 13 14 16 17 18 18 17 19 17
8 7 7 8 9 9 8 10 10 11 10 10 10 10 9 9 7 8 10 9 9 9 9 8 8 8 8 9 9 9 8 8 9 9 7 8 7 7 7 7 6 6 6 6 7 7 6 6 6 5 5 5 5 6 5 5 5 5 5 5 4 4 3 2 1 2 4 4 4 4 6 6 7 7 7 8 11 13 15 16 18 19 19 17 18
10 10 8 8 8 7 8 11 11 12 11 10 10 9 9 10 10 10 9 8 10 9 8 8 9 8 9 9 10 9 9 9 9 7 9 9 8 7 7 7 8 6 7 8 7 6 7 6 5 5 5 6 6 7 5 6 6 5 5 6 5 4 3 3 3 3 3 4 4 3 6 5 6 6 6 7 9 11 14 15 17 18 20 17 18
10 11 9 8 8 7 9 11 11 10 9 11 10 11 10 10 10 10 8 9 9 7 8 8 8 9 9 9 10 10 9 9 9 9 8 8 8 8 8 7 7 8 8 8 6 7 6 7 7 6 6 6 7 6 6 6 6 5 5 6 6 3 3 3 3 3 3 4 5 4 3 5 4 4 5 6 8 10 13 14 15 17 18 18 19
11 11 10 9 9 10 11 12 12 11 10 11 11 10 10 11 10 9 10 10 8 8 9 8 9 9 9 9 10 10 9 9 9 9 9 9 9 9 8 8 9 7 8 7 7 7 7 6 6 6 5 5 6 6 5 6 6 6 5 5 4 4 4 4 3 3 3 3 3 4 3 3 4 4 3 5 7 9 12 12 14 15 17 18 19
9 11 12 10 11 10 11 12 12 12 12 12 12 11 10 10 10 10 10 10 9 9 9 10 10 9 9 10 10 11 10 10 10 10 10 9 9 8 8 9 8 8 7 8 8 7 6 6 6 4 5 5 5 6 5 6 6 6 5 5 4 4 5 4 4 3 3 3 4 3 3 2 2 4 3 5 5 8 10 12 13 14 15 16 18
10 8 9 11 9 7 8 9 12 13 13 12 11 10 10 10 10 10 10 10 9 10 11 10 9 9 10 11 11 11 10 10 9 9 9 9 9 9 9 9 8 8 8 7 8 7 7 7 7 6 6 6 7 6 6 6 6 5 5 5 4 6 5 4 4 5 3 4 4 3 2 2 3 2 2 4 5 7 9 10 12 13 14 16 16
11 10 12 13 12 11 9 8 11 13 13 13 12 11 10 11 10 10 10 11 11 11 10 9 9 10 10 10 11 11 12 11 11 10 10 9 9 9 9 9 7 8 8 8 8 7 7 8 6 7 6 6 6 7 6 7 6 6 6 5 6 5 4 5 3 4 4 4 3 3 2 3 3 3 1 2 4 5 7 10 11 12 13 14 16
14 13 13 13 13 12 11 11 11 14 14 14 13 13 12 11 11 11 11 11 10 11 11 11 11 10 10 10 12 12 12 12 11 10 9 10 10 10 9 7 9 8 8 7 7 8 7 7 7 7 7 7 6 7 6 6 6 6 5 5 6 5 6 4 4 4 4 3 3 4 2 2 3 3 2 2 3 4 7 8 10 11 12 13 14
14 14 14 13 13 13 11 12 13 14 14 15 15 13 12 11 11 11 12 11 11 11 10 10 10 10 10 11 12 13 12 12 12 12 10 10 10 9 8 9 8 9 8 8 8 7 8 7 6 7 7 7 7 7 6 6 5 5 5 5 6 6 6 6 5 5 1 3 4 4 2 3 3 4 2 2 2 4 5 7 8 9 10 11 13
14 15 15 15 15 14 12 13 12 13 13 14 14 13 12 12 11 11 11 11 12 11 10 9 9 10 10 11 11 12 12 13 13 12 11 10 10 9 8 9 9 8 8 8 9 7 7 8 8 7 8 7 7 8 7 5 4 5 5 4 5 4 6 5 5 3 3 4 4 4 5 4 3 4 2 2 3 4 3 5 7 8 8 10 12
12 14 14 14 13 13 11 12 13 12 12 12 12 13 12 11 10 10 9 9 8 9 9 9 10 10 11 11 10 10 11 12 13 12 11 10 9 9 8 8 8 9 8 8 8 8 8 8 9 8 6 7 7 7 7 6 5 4 5 5 4 5 6 5 3 3 3 4 5 5 3 4 3 3 2 2 3 3 3 4 4 4 6 9 10
13 13 14 13 13 13 10 10 12 12 12 11 11 10 9 9 9 5 5 6 7 8 9 10 10 11 11 11 10 11 11 11 12 11 11 10 9 9 9 8 9 9 9 10 9 9 10 9 9 9 7 5 3 6 5 6 2 2 4 4 4 4 5 4 4 4 4 4 5 4 4 3 2 4 3 2 3 3 3 3 3 4 4 7 10
12 12 12 12 13 14 11 12 11 11 11 10 10 10 10 7 7 9 11 10 10 10 10 10 10 10 11 12 11 11 10 10 11 10 11 10 8 8 8 9 9 10 10 12 11 10 9 10 8 6 9 7 6 4 4 6 5 1 1 3 5 3 4 3 5 5 4 6 4 4 5 3 4 2 3 2 3 3 3 3 3 4 4 4 6
11 10 12 14 13 13 13 14 11 11 12 13 12 11 11 11 12 12 12 11 10 10 11 11 13 11 11 9 9 9 10 10 10 10 10 10 9 9 10 10 10 10 10 8 8 8 9 8 7 6 5 10 8 6 6 7 4 8 4 2 4 5 4 4 5 6 6 5 4 4 5 5 4 4 3 1 3 2 3 3 3 3 3 4 4
8 8 12 13 12 12 12 12 11 12 12 13 12 12 10 11 12 10 13 10 10 11 10 9 7 7 7 8 8 8 9 9 11 11 11 11 11 10 10 9 10 9 8 8 8 9 10 11 10 11 7 4 4 5 8 10 6 4 3 2 3 1 5 4 5 6 7 5 4 4 5 4 5 4 4 3 3 3 3 2 2 2 3 4 4
7 7 6 8 9 10 11 12 12 12 12 13 13 13 14 15 13 10 7 7 6 5 4 2 4 5 7 9 10 10 12 12 12 11 11 11 11 11 8 9 10 10 10 10 10 11 9 9 9 9 8 7 6 8 8 10 6 10 4 7 3 2 4 7 9 5 3 6 5 6 4 5 4 4 1 4 4 3 3 3 3 3 3 3 4
6 6 7 8 7 10 12 13 12 12 11 11 13 12 9 4 3 2 3 3 3 3 4 4 6 9 11 10 12 11 11 10 10 12 11 11 10 9 10 10 10 10 10 10 11 12 11 11 12 10 11 12 10 5 7 8 9 10 8 5 2 0 6 2 1 5 1 3 5 5 4 4 4 6 5 5 3 3 3 2 3 2 3 3 3
6 7 7 8 8 9 10 10 9 8 10 11 13 11 10 11 9 8 6 5 7 6 9 12 12 11 11 5 3 4 7 8 9 10 10 9 10 11 10 10 10 10 10 10 9 8 10 11 12 12 12 10 10 7 6 6 9 9 6 2 5 5 4 3 2 3 1 2 2 4 5 5 4 6 5 4 4 4 3 5 3 3 2 3 3
7 5 4 5 6 8 8 9 9 9 9 8 8 8 8 8 12 14 13 13 13 10 9 9 9 8 7 8 9 8 10 11 9 9 10 11 10 10 11 11 10 10 9 9 10 12 11 12 10 10 11 10 7 9 10 10 5 6 8 5 0 0 4 6 4 2 1 2 2 4 5 5 4 4 5 5 5 4 4 4 4 3 3 3 3
6 4 2 1 4 5 5 6 6 6 6 6 8 10 11 11 11 11 11 11 12 13 12 9 4 4 6 8 7 8 10 11 12 11 11 11 10 10 10 10 10 10 10 11 12 10 9 8 10 12 10 10 11 11 10 8 13 12 11 8 3 1 1 2 3 7 5 4 3 1 2 4 4 5 6 6 5 5 5 4 5 3 3 3 2
5 3 2 1 1 2 3 2 4 5 4 4 6 8 10 11 12 11 10 9 10 9 3 5 6 6 7 5 6 7 8 9 9 10 10 11 10 10 10 10 10 10 10 10 10 10 12 11 10 10 11 10 10 10 8 10 10 11 9 9 5 4 1 2 2 2 2 2 2 4 4 0 1 5 6 5 5 5 5 5 6 4 3 3 3
4 4 3 2 2 2 3 2 3 3 4 5 6 7 6 6 8 8 11 10 7 4 4 6 6 6 7 7 7 7 7 8 8 8 9 10 11 10 10 12 12 10 9 11 10 9 10 10 12 12 12 11 9 9 11 8 9 7 7 8 9 4 1 1 0 2 1 1 5 5 7 8 8 7 5 7 6 5 6 4 4 4 4 4 4
4 3 2 2 1 1 1 1 2 2 3 5 5 7 7 6 9 10 11 11 7 7 6 5 5 5 7 7 7 7 6 7 7 7 9 9 10 10 10 11 10 9 10 10 10 10 10 10 10 10 11 12 10 10 9 6 7 8 7 8 11 12 13 11 10 6 6 3 1 2 2 6 6 3 4 5 5 5 5 4 5 5 4 4 4
Wind_Direction
228 170 178 182 172 176 175 174 172 170 169 168 168 167 162 159 157 157 158 159 161 161 162 162 160 161 162 161 161 159 153 153 150 152 150 147 149 151 151 158 155 162 160 166 165 149 162 165 132 152 144 116 153 149 77 49 61 55 45 41 12 5 357 6 8 9 1 348 340 336 330 325 327 326 325 322 315 320 333 358 325 324 321 298 303
175 179 175 181 174 176 177 176 175 172 171 170 170 169 166 163 159 159 159 159 160 161 164 164 161 164 163 164 164 160 160 155 152 159 152 152 152 155 161 160 155 166 170 172 162 169 171 170 137 150 133 128 100 63 356 59 60 44 32 42 33 346 6 4 15 7 352 346 340 333 329 328 330 331 327 326 322 328 334 343 337 325 298 291 303
148 163 172 177 176 176 177 178 176 174 172 171 172 171 169 168 164 161 160 160 161 159 163 167 163 166 165 166 166 167 163 160 157 162 155 158 156 160 170 160 164 171 175 180 168 174 176 162 181 144 132 119 130 123 70 79 57 41 34 19 336 7 4 5 11 359 349 343 338 332 331 330 328 328 323 321 330 335 333 334 327 312 290 305 303
150 166 163 171 176 178 178 179 178 176 174 173 172 172 171 170 168 165 163 164 164 160 163 170 167 167 171 168 172 168 166 164 163 168 156 163 164 166 171 167 168 173 174 188 172 178 170 168 139 155 135 166 137 146 91 77 74 70 52 314 348 20 24 15 2 353 347 341 338 338 339 328 321 314 315 325 330 333 333 322 307 296 311 307 301
154 162 165 164 171 179 179 180 179 179 177 175 173 172 172 172 171 170 167 169 167 164 166 170 169 171 172 172 173 172 167 167 167 167 163 170 171 167 175 172 169 175 177 184 179 181 168 165 155 162 141 121 113 81 92 78 86 83 359 348 5 17 26 11 357 349 346 342 338 347 324 316 309 305 317 328 328 331 325 305 292 313 313 304 299
160 161 162 164 165 177 180 182 181 180 179 177 175 174 174 174 172 172 170 172 170 168 168 170 172 173 174 176 170 175 171 170 171 170 177 171 171 168 178 174 175 180 180 178 184 173 176 150 149 150 156 154 151 194 82 82 93 73 319 359 21 30 18 4 352 349 347 343 344 337 324 312 311 305 319 327 326 327 320 314 317 318 316 309 309
159 164 160 162 164 173 179 182 181 182 181 178 178 176 175 174 173 173 173 174 175 172 172 174 176 174 176 179 174 176 177 175 176 172 180 173 168 176 184 177 174 182 186 185 177 184 173 166 168 152 140 142 170 214 89 101 91 225 319 27 36 27 12 355 353 350 346 353 337 325 315 312 309 300 318 328 326 323 318 317 318 320 316 309 313
149 168 166 160 163 173 175 181 183 183 182 180 179 177 177 176 176 175 175 175 179 175 175 177 179 178 178 179 181 177 180 177 183 176 183 174 174 179 188 183 175 185 191 192 174 184 181 172 170 166 163 186 172 162 151 100 136 238 30 46 27 11 2 358 352 348 349 346 331 320 310 308 304 307 315 327 325 318 316 318 319 316 311 307 309
161 173 169 161 164 169 172 180 183 185 185 181 180 179 178 177 178 176 177 178 179 179 180 177 185 181 181 179 186 180 182 179 182 180 188 178 177 184 192 181 186 187 195 190 181 185 186 174 177 176 172 180 192 184 170 211 191 292 62 43 22 8 1 355 346 351 353 336 325 312 306 303 306 314 313 323 320 316 317 320 315 311 306 298 296
160 166 173 163 166 171 171 178 185 186 186 184 181 181 179 179 179 178 179 182 179 182 177 185 182 185 185 181 185 185 187 183 186 182 187 183 182 186 194 190 190 186 196 191 186 192 193 194 190 177 181 200 205 195 209 187 219 358 269 282 336 360 351 349 345 360 345 326 318 310 303 313 315 311 306 318 316 317 317 314 313 307 298 297 301
161 167 172 169 168 171 172 178 186 188 188 187 185 185 183 181 180 179 181 182 181 184 181 186 184 184 191 185 188 187 188 186 190 186 190 188 183 187 191 196 195 193 190 200 196 199 199 204 194 192 194 204 212 210 225 203 214 266 266 263 132 337 344 344 353 355 333 321 317 310 308 315 313 300 303 318 317 318 316 314 311 302 301 306 304
174 173 175 172 172 173 172 178 186 190 191 188 188 187 187 184 182 183 182 183 184 184 190 186 185 188 190 189 192 189 190 190 194 191 193 192 185 195 184 199 193 197 197 198 203 206 206 210 205 204 200 201 208 212 223 212 243 245 280 105 341 342 343 339 1 338 326 321 312 302 305 312 306 292 317 321 320 319 315 313 310 307 313 312 312
176 175 181 175 175 177 172 177 187 192 191 191 190 189 189 187 185 188 182 183 184 185 191 188 189 190 193 191 193 195 192 192 197 194 197 196 194 198 191 198 203 200 198 201 204 208 210 211 210 208 207 207 209 223 224 233 243 267 117 54 18 329 339 334 354 335 323 318 304 308 307 303 299 302 326 323 320 317 313 312 309 313 316 316 317
177 176 174 179 183 185 173 177 185 190 191 192 192 192 191 189 188 189 187 184 185 186 190 190 191 193 196 194 196 194 195 195 197 197 199 198 199 197 197 194 205 200 203 208 210 211 212 213 216 212 211 215 218 225 231 234 226 216 212 197 304 325 322 337 337 331 316 311 303 304 312 301 285 315 324 323 320 317 311 310 313 320 319 319 318
177 180 174 173 182 189 184 176 183 188 190 191 191 193 193 193 192 189 189 186 187 188 190 189 193 195 196 199 198 197 196 196 194 200 200 200 201 199 200 196 205 204 203 207 213 213 212 212 216 215 214 216 220 223 234 236 220 243 201 203 277 301 308 326 328 318 310 304 304 316 302 298 301 327 325 323 320 315 312 313 317 318 320 320 321
200 175 174 175 174 183 195 183 182 186 188 189 190 192 195 194 193 194 193 190 189 190 190 190 194 197 197 201 198 200 198 199 188 202 188 199 208 202 203 201 205 205 208 208 210 213 213 214 215 217 219 220 221 225 232 240 230 242 208 214 248 279 297 311 326 311 301 297 299 298 298 286 309 327 327 325 322 316 314 314 317 321 322 324 322
299 231 173 178 174 178 186 201 186 185 186 187 190 190 194 195 196 194 196 194 192 192 191 193 195 196 199 202 199 198 201 201 196 195 186 192 203 207 207 206 207 207 210 211 210 212 214 215 216 218 221 224 227 225 234 241 248 229 204 217 255 272 289 304 317 301 298 290 293 296 285 287 295 329 330 327 321 317 314 318 323 324 324 323 320
107 278 213 178 180 181 181 197 195 184 185 187 188 189 193 196 198 196 196 196 194 196 195 194 195 195 199 207 202 199 198 202 198 192 189 190 192 210 212 208 210 210 211 212 215 213 214 215 218 218 222 224 224 226 234 237 247 216 200 236 253 270 290 308 314 295 291 285 286 281 281 277 320 328 330 326 317 319 317 323 328 330 328 325 326
153 183 218 189 189 184 182 187 208 186 182 185 186 191 191 195 197 198 197 197 196 199 197 196 196 196 198 204 207 203 198 203 201 192 191 192 192 202 207 214 211 214 213 215 217 218 216 218 218 221 223 224 224 227 233 240 212 187 219 239 258 277 295 321 315 297 284 285 282 272 264 296 328 329 328 324 318 317 324 328 333 335 329 331 327
159 166 177 205 192 187 189 182 214 198 181 184 187 189 194 194 195 198 198 198 198 200 199 199 201 196 196 203 208 203 201 203 207 198 192 193 196 193 208 205 226 226 216 219 219 220 221 218 220 222 225 225 224 228 231 236 219 235 236 255 267 281 313 323 300 289 282 276 272 254 270 316 324 329 328 321 320 321 332 334 334 333 334 331 326
174 175 183 191 191 194 193 187 209 217 187 182 189 191 195 193 194 197 199 198 199 200 199 200 203 195 194 207 208 201 198 197 209 190 197 192 194 195 201 203 211 240 233 220 221 222 222 222 222 223 225 225 224 227 233 236 239 222 234 252 263 301 301 307 292 283 282 270 266 247 276 318 324 329 328 322 320 327 332 331 333 336 336 331 332
200 193 193 194 186 204 199 192 189 221 205 190 191 193 192 193 193 195 198 199 199 198 199 198 199 198 202 204 202 198 191 192 198 190 186 195 195 193 196 198 202 217 235 234 223 224 223 225 224 226 227 228 223 220 242 261 241 219 238 253 274 271 287 286 288 280 278 272 251 256 278 313 321 334 333 322 323 331 333 334 335 335 334 333 334
216 218 209 193 194 190 198 198 192 190 210 209 200 196 194 193 192 193 196 196 197 197 196 197 196 197 201 200 195 194 190 185 189 189 172 193 198 195 195 197 200 206 217 236 249 231 226 226 226 229 230 228 224 197 207 234 257 255 263 287 273 262 274 285 274 271 271 269 248 254 279 305 318 336 337 324 321 333 334 335 333 334 335 336 336
223 202 204 197 190 188 194 200 193 185 188 205 211 204 200 193 193 192 191 194 195 197 196 195 197 197 198 195 193 191 190 186 187 182 175 184 204 204 198 197 200 204 208 219 235 252 240 228 228 231 231 230 200 192 193 218 237 254 269 265 259 250 249 258 265 266 268 262 250 249 261 296 316 334 339 325 322 335 335 335 332 335 338 337 337
231 233 211 199 194 196 190 197 195 187 188 193 205 211 206 199 194 193 192 191 193 195 197 196 197 198 198 192 190 188 188 186 186 189 185 177 189 205 205 200 195 201 202 207 213 224 236 224 248 255 245 212 192 205 192 216 238 249 253 256 250 244 235 244 250 261 258 252 248 245 252 289 316 332 340 329 325 333 336 333 333 336 338 337 338
255 268 229 212 205 198 192 192 189 192 192 193 197 204 206 210 200 196 190 193 193 195 196 197 196 197 196 194 181 186 189 189 190 195 197 186 190 198 201 197 198 200 196 200 203 205 215 197 209 233 245 228 213 207 205 207 230 247 254 254 246 236 222 227 227 251 262 253 253 248 254 277 305 327 337 330 324 332 335 332 332 335 341 339 340
216 224 244 237 215 201 196 184 188 192 200 198 194 190 203 214 210 198 193 198 193 195 200 199 199 196 196 190 184 189 190 190 193 196 203 195 204 196 198 195 198 198 195 191 199 202 202 201 205 220 218 217 235 229 221 224 227 242 252 253 241 228 210 215 234 269 273 250 259 254 253 266 289 311 328 328 323 330 335 334 332 334 340 340 341
232 224 222 235 239 218 199 185 189 189 196 198 197 196 200 206 210 205 206 202 194 202 201 200 197 201 198 195 193 192 192 195 198 198 202 195 208 201 194 198 201 201 190 190 192 197 203 205 206 217 219 222 227 234 234 232 234 232 251 250 226 211 206 212 225 262 271 264 259 261 257 259 273 295 318 326 322 331 330 334 331 334 341 342 342
234 231 224 221 224 215 205 196 192 193 194 191 199 201 198 197 204 207 210 201 203 205 200 194 202 202 201 198 192 196 197 200 202 204 193 206 202 198 195 204 199 199 185 198 190 191 200 199 205 212 216 226 228 237 232 240 236 231 229 239 219 211 218 217 231 271 279 272 269 268 258 260 266 287 308 321 321 328 327 332 330 330 336 341 345
224 231 226 222 227 212 203 204 198 194 194 186 199 200 197 196 200 209 211 203 212 203 194 202 203 198 205 202 198 199 200 200 203 198 199 206 200 197 198 200 201 192 190 198 192 186 195 197 203 207 212 224 228 233 221 236 238 231 226 232 229 218 207 202 221 244 265 275 260 258 265 272 282 289 299 315 322 324 326 333 330 328 331 340 342
216 226 227 219 218 207 206 207 208 201 190 190 195 201 195 200 199 200 204 209 211 197 202 205 202 206 206 201 203 203 202 201 200 197 203 203 199 196 202 192 199 196 192 199 181 191 186 195 197 200 208 217 229 228 216 226 233 235 230 224 229 213 219 211 214 235 260 257 252 259 282 307 306 288 290 312 323 322 323 331 330 327 334 339 339
217 222 223 216 211 205 203 205 206 204 194 196 196 197 198 199 199 195 201 207 197 203 206 204 207 209 204 204 205 205 203 204 200 199 200 202 202 200 197 193 203 190 192 191 185 187 187 197 198 199 202 204 226 227 220 217 225 227 222 229 228 221 223 207 211 235 244 249 245 263 284 294 294 282 304 316 331 327 322 327 327 332 337 340 338
228 221 223 214 212 204 202 206 203 202 198 198 197 198 198 199 197 195 201 198 195 200 204 206 208 205 204 206 208 205 204 204 202 201 200 203 203 200 200 203 198 189 185 187 181 182 186 189 205 197 204 209 222 235 225 222 220 221 216 231 217 229 223 204 218 236 252 236 233 248 274 277 274 298 322 326 337 327 321 327 327 337 339 342 339
233 218 222 222 213 207 202 202 204 202 200 202 201 198 198 200 199 198 198 191 196 201 206 207 204 203 203 207 207 207 207 207 202 202 198 201 202 203 202 202 194 184 178 175 181 181 191 190 197 187 209 205 215 226 214 224 229 228 218 223 211 224 217 218 221 228 229 230 227 236 256 271 267 281 300 325 325 315 322 326 330 337 342 343 344
229 229 224 226 214 206 199 207 201 203 198 203 202 202 199 199 197 200 198 193 196 202 205 204 202 204 201 206 205 207 207 206 203 199 200 199 201 204 204 201 183 177 179 182 178 184 188 196 182 194 204 210 214 219 209 215 215 223 225 217 222 231 231 226 227 240 228 231 224 233 233 245 265 287 294 317 309 307 311 325 329 333 340 343 345
226 227 229 228 229 217 203 207 200 202 199 200 202 204 202 201 200 200 200 197 199 202 203 201 203 201 200 205 205 205 205 204 202 198 199 200 202 204 203 186 181 176 182 176 178 184 190 194 196 183 191 213 205 223 207 213 214 222 224 217 225 222 226 230 233 235 237 236 244 241 236 242 254 267 281 285 287 298 313 324 326 328 336 339 343
226 227 228 230 232 231 213 212 208 203 201 202 202 204 203 203 203 202 202 197 201 205 207 204 203 200 203 206 204 204 203 201 200 199 200 199 201 203 196 187 174 180 177 179 188 186 180 191 197 198 191 197 200 212 212 209 213 220 215 215 218 216 224 226 226 224 200 210 235 239 262 251 235 254 273 267 278 295 315 324 322 323 330 335 340
226 224 224 223 223 225 214 209 210 204 203 202 202 203 206 205 204 205 202 202 204 206 206 201 204 207 206 210 205 203 203 200 199 198 202 200 199 199 189 182 175 177 181 180 193 179 185 183 194 200 198 191 199 201 209 204 207 212 216 218 226 217 231 232 229 216 192 236 239 240 227 216 228 236 248 261 274 295 311 324 321 324 329 330 335
225 223 224 223 223 224 215 209 206 200 204 204 205 206 207 208 208 205 206 208 209 212 205 203 206 208 210 210 204 202 205 203 201 197 199 197 196 195 187 181 176 179 180 184 185 184 185 188 190 196 208 205 192 196 191 185 198 210 217 229 228 230 236 237 235 210 209 213 225 237 230 230 216 255 254 258 266 286 319 321 324 326 327 327 331
223 221 221 222 222 223 214 211 207 199 199 201 199 204 205 204 205 209 221 220 216 213 212 210 208 211 209 206 202 204 202 202 201 198 199 197 194 190 186 176 182 179 182 186 190 186 187 183 198 189 194 218 215 183 161 157 152 206 241 267 247 243 250 243 246 236 226 226 235 245 227 230 206 246 243 246 266 288 300 316 317 316 325 328 329
222 218 218 219 216 214 203 208 207 199 193 196 199 197 199 203 214 210 210 205 208 210 213 215 216 213 209 206 203 203 200 198 199 195 200 196 194 186 182 186 184 186 189 195 189 187 186 186 185 179 183 191 216 184 174 145 145 244 318 293 290 263 257 270 260 260 242 230 225 220 235 231 244 233 238 241 257 279 297 324 304 316 329 333 330
230 219 216 217 212 211 204 208 202 198 198 195 196 198 199 197 195 203 203 208 208 208 217 214 215 213 210 206 204 201 197 196 195 195 197 192 191 189 191 189 186 191 195 187 184 182 180 183 166 182 200 189 202 180 174 131 190 200 174 289 297 291 260 259 257 257 245 247 227 216 229 226 237 228 236 223 248 271 296 299 297 318 323 335 331
247 233 224 215 212 209 208 208 201 196 201 200 195 199 201 207 203 205 201 210 213 212 216 220 213 214 201 200 201 198 195 196 193 193 194 196 196 191 195 187 187 183 180 186 185 187 187 186 179 186 188 227 197 185 177 193 172 126 105 91 262 259 304 272 258 248 241 235 231 225 226 227 232 216 212 211 235 255 281 294 303 311 318 329 331
246 241 241 236 224 211 207 207 204 201 201 203 198 200 200 203 206 210 210 202 195 199 198 155 178 186 207 201 203 196 195 196 192 192 198 198 196 195 185 182 189 185 186 186 188 194 185 188 189 193 169 183 203 211 198 188 146 142 176 200 212 144 317 257 218 250 217 221 209 226 220 225 229 230 214 220 225 230 259 276 274 284 297 310 326
254 242 230 215 214 216 212 208 207 201 204 202 200 200 196 172 136 62 73 88 56 119 159 204 201 205 212 206 209 201 197 195 191 195 198 199 195 190 185 187 185 189 188 191 192 194 187 189 185 188 188 195 201 199 207 197 192 195 141 113 50 293 225 248 134 272 162 206 234 228 229 229 224 217 206 231 233 232 240 262 264 281 284 306 324
270 251 231 222 204 215 219 217 212 207 205 203 199 193 183 179 168 167 163 179 202 183 197 206 209 209 215 204 196 188 196 199 196 199 200 195 193 192 188 185 190 189 192 196 190 185 192 191 193 193 199 203 193 185 194 220 209 209 210 182 160 171 198 236 112 257 351 248 264 229 226 227 223 219 220 228 237 238 219 235 260 265 284 292 311
281 274 259 238 226 217 214 214 208 207 207 204 192 177 184 185 187 190 195 198 205 215 215 219 210 210 197 190 195 186 193 195 199 197 199 199 195 190 190 191 189 190 191 188 191 195 194 196 189 195 201 196 182 193 197 197 202 257 237 220 101 211 148 132 199 84 282 307 255 237 245 236 235 235 230 225 227 225 240 227 241 260 271 284 299
290 309 267 202 203 217 211 219 224 214 204 190 179 183 187 189 193 202 204 206 207 215 209 212 194 172 184 200 190 197 198 199 198 198 197 194 193 191 190 189 189 192 187 196 198 196 193 197 192 197 196 194 195 201 200 184 187 212 212 225 244 49 92 76 132 165 161 169 252 290 286 255 253 242 227 224 218 211 227 234 237 250 264 277 279
323 338 336 354 104 123 144 164 200 205 198 177 186 196 195 193 194 197 204 212 212 221 182 172 183 176 188 194 195 201 201 206 205 199 195 192 191 191 188 190 193 193 192 199 201 191 193 188 190 194 200 202 201 204 188 198 197 210 181 223 207 220 55 55 100 73 136 124 271 201 226 349 281 256 244 232 235 211 207 218 216 209 209 244 267
298 309 321 15 42 67 96 135 198 197 191 180 185 197 202 189 195 199 203 211 208 200 154 180 186 173 196 198 199 196 199 202 204 200 195 194 192 190 191 195 196 193 192 201 196 192 195 195 195 196 198 202 202 200 205 201 205 209 198 194 195 185 211 239 224 123 62 122 173 205 204 182 208 238 212 227 225 226 215 227 224 215 219 221 249
314 322 340 7 359 51 96 148 204 184 182 190 182 195 195 190 200 202 205 210 199 186 177 193 182 179 200 203 196 200 192 201 193 200 199 194 194 193 194 199 195 193 196 198 198 196 194 196 197 200 202 202 199 202 209 206 197 206 197 193 202 197 199 196 201 193 175 155 108 251 208 211 212 229 250 215 217 218 210 210 216 216 211 211 224